Zurück zum Katalog

STARLINK-30197

AktivKommunikationVLEO
NORAD 57443·PAYLOAD·🇺🇸 United States

Gestartet Jul 24, 2023 von Cape Canaveral Space Force Station

Loading…

Nächste Überflüge (nächste 24 Stunden)

TLE

AktuellSource: CelesTrak SupGP

Epoche: Sep 14, 2026, 22:10 UTC

1 57443C 23105P   26257.92409722  .00031981  00000+0  11583-2 0  2579
2 57443  42.9997 271.0215 0001518 263.9277 120.5728 15.27563465    14

Verfolge STARLINK-30197 in Echtzeit mit AllMySat

Download on the App Store